CW4884 Weather Reports


time (UTC)temp
C
wind
direction
speed
KPH
gust
KPH
rain 1hr
cm
rain 24hr
cm
rain mn
cm
humidity
%
barometer
mb
20260504204622 19 230 6.4 0.0 0.00 0.00 0.00 35 1006.1
20260504203042 19 175 6.4 0.0 0.00 0.00 0.00 40 1006.3
20260504201540 18 72 4.8 0.0 0.00 0.00 0.00 38 1006.4
20260504200041 18 89 6.4 0.0 0.00 0.00 0.00 36 1006.4
20260504194547 18 65 6.4 0.0 0.00 0.00 0.00 36 1006.5
20260504193036 18 136 4.8 0.0 0.00 0.00 0.00 38 1006.5
20260504191533 17 66 4.8 0.0 0.00 0.00 0.00 41 1006.7
20260504190009 17 83 3.2 0.0 0.00 0.00 0.00 40 1006.9
20260504184608 17 54 3.2 0.0 0.00 0.00 0.00 40 1007.1
20260504183102 17 46 4.8 0.0 0.00 0.00 0.00 39 1007.1
20260504181556 17 88 6.4 0.0 0.00 0.00 0.00 39 1007.1
20260504180100 16 59 8.0 0.0 0.00 0.00 0.00 41 1007.3
20260504174505 16 75 8.0 0.0 0.00 0.00 0.00 40 1007.4
20260504173002 16 69 6.4 0.0 0.00 0.00 0.00 40 1007.5
20260504171503 16 71 4.8 0.0 0.00 0.00 0.00 40 1007.7
20260504081558 11 16 3.2 0.0 0.00 0.00 0.00 58 1005.6
20260504050018 12 23 0.0 0.0 0.00 0.00 0.00 55 1005.2
20260504044538 13 24 0.0 0.0 0.00 0.00 0.00 53 1005.1
20260504043028 13 344 0.0 0.0 0.00 0.00 0.00 53 1005.0
20260504041529 13 344 1.6 0.0 0.00 0.00 0.00 52 1005.0
20260504040051 14 260 0.0 0.0 0.00 0.00 0.00 51 1004.9
20260504034605 14 259 0.0 0.0 0.00 0.00 0.00 50 1004.6
20260504033053 15 259 0.0 0.0 0.00 0.00 0.00 51 1004.4
20260504031601 15 259 0.0 0.0 0.00 0.00 0.00 49 1004.2
20260504030058 17 259 0.0 0.0 0.00 0.00 0.00 46 1004.0
20260504024606 18 259 0.0 0.0 0.00 0.00 0.00 41 1003.9
20260504023057 20 259 0.0 0.0 0.00 0.00 0.00 39 1003.8
20260504021554 21 259 0.0 0.0 0.00 0.00 0.00 35 1003.7
20260504020042 22 259 0.0 0.0 0.00 0.00 0.00 32 1003.7
20260504014553 22 259 1.6 0.0 0.00 0.00 0.00 31 1003.8
20260504013054 22 258 1.6 0.0 0.00 0.00 0.00 30 1003.8
20260504011543 22 258 0.0 0.0 0.00 0.00 0.00 29 1003.9
20260504010037 23 258 3.2 0.0 0.00 0.00 0.00 30 1004.0
20260504004536 23 232 3.2 0.0 0.00 0.00 0.00 29 1004.1
20260504003040 23 283 3.2 0.0 0.00 0.00 0.00 28 1004.3
20260504001534 23 286 3.2 0.0 0.00 0.00 0.00 28 1004.4
20260504000031 24 281 3.2 0.0 0.00 0.00 0.00 27 1004.4
20260503234544 25 217 1.6 0.0 0.00 0.00 0.00 28 1004.5
20260503233031 25 290 3.2 0.0 0.00 0.00 0.00 28 1004.7
20260503231528 25 323 3.2 0.0 0.00 0.00 0.00 27 1004.8
20260503230045 25 278 6.4 0.0 0.00 0.00 0.00 29 1005.3
20260503224545 25 271 3.2 0.0 0.00 0.00 0.00 28 1005.4
20260503223049 25 167 3.2 0.0 0.00 0.00 0.00 29 1005.5
20260503221540 24 173 4.8 0.0 0.00 0.00 0.00 28 1005.5
20260503220036 24 282 0.0 0.0 0.00 0.00 0.00 31 1005.9
20260503214518 23 287 3.2 0.0 0.00 0.00 0.00 36 1006.1
20260503213056 25 283 1.6 0.0 0.00 0.00 0.00 36 1006.4
20260503211547 23 229 4.8 0.0 0.00 0.00 0.00 36 1006.7
20260503210052 24 288 4.8 0.0 0.00 0.00 0.00 37 1006.9